Location: Newark
(15.4608°S, 41.1635°W)
Time: 07:53:19
(UTC+00:00)

Transit 4A - Pass Details

Date: 12 March 2021
Orbit: 869 x 975 km, 66.8° (Epoch: 22 April)

Event Time Altitude Azimuth Distance (km) Brightness Sun altitude
Rises 08:37:40 0° 194° (SSW) 3,639 10.9 -3.2°
Reaches altitude 10° 08:40:16 10° 189° (S) 2,701 10.3 -2.6°
Maximum altitude 08:46:27 56° 112° (ESE) 1,149 9.0 -1.1°
Drops below altitude 10° 08:52:40 10° 35° (NE) 2,712 10.8 0.4°
Sets 08:55:16 0° 31° (NNE) 3,653 11.4 1.1°
